Location: Dodge City Community College Clyde Tombaugh Astronomy Center
(37.7756°N, 100.0412°W)
Time: 23:19:48
(UTC+00:00)

N. Korean satellite - Pass Details

Date: 07 December 2022
Orbit: 407 x 442 km, 97.3° (Epoch: 04 February)

Event Time Altitude Azimuth Distance (km) Brightness Sun altitude
Rises 12:26:43 0° 1° (N) 2,497 10.0 -14.6°
Reaches altitude 10° 12:28:55 10° 351° (N) 1,610 8.9 -14.1°
Maximum altitude 12:32:00 31° 287° (WNW) 815 7.1 -13.6°
Drops below altitude 10° 12:35:02 10° 223° (SW) 1,571 8.9 -13.0°
Sets 12:37:10 0° 213° (SSW) 2,426 10.0 -12.6°
